Weather History for KHRI - January, 2013

Change the Weather History Date:

Friday, January 4, 2013

  Actual Average Record
Temperature  
Mean Temperature 28 °F -  
Max Temperature 34 °F 37 °F 64 °F (1989)
Min Temperature 21 °F 23 °F -4 °F (1942)
Degree Days  
Heating Degree Days 38    
Moisture  
Dew Point 22 °F    
Average Humidity 82    
Maximum Humidity 93    
Minimum Humidity 64    
Precipitation  
Precipitation 0.00 in - - ()
Sea Level Pressure  
Sea Level Pressure 30.43 in    
Wind  
Wind Speed 1 mph (North)    
Max Wind Speed 7 mph    
Max Gust Speed -    
Visibility 8 miles    
Events      
Averages and records for this station are not official NWS values.
T = Trace of Precipitation, MM = Missing Value Source: NWS Daily Summary

Daily Weather History Graph

Daily Weather History Graph

Search for Another Location

Airport or City:

Trip Planner

Search our weather history database for the weather conditions in past years. The results will help you decide how hot, cold, wet, or windy it might be!

Date:

Astronomy

Jan. 04, 2013 Rise Set
Actual Time 7:38 AM PST 4:26 PM PST
Civil Twilight 7:04 AM PST 5:00 PM PST
Nautical Twilight 6:26 AM PST 5:38 PM PST
Astronomical Twilight 5:50 AM PST 6:14 PM PST
Moon No Moon Rise 10:58 AM PST (1/4)
Length of Visible Light 9h 56m
Length of Day
8h 48m
Waning Gibbous, 54% of the Moon is Illuminated
Jan 4
Waning Gibbous
Jan 4
Last Quarter
Jan 11
New
Jan 18
First Quarter
Jan 26
Full

Hourly Weather History & Observations

Time (PST) Temp. Windchill Dew Point Humidity Pressure Visibility Wind Dir Wind Speed Gust Speed Precip Events Conditions
12:53 AM 25.0 °F - 21.9 °F 88% 30.43 in 9.0 mi Calm Calm - N/A   Mostly Cloudy
1:53 AM 24.1 °F - 21.0 °F 88% 30.43 in 8.0 mi Calm Calm - N/A   Overcast
2:53 AM 24.1 °F - 21.0 °F 88% 30.43 in 7.0 mi Calm Calm - N/A   Mostly Cloudy
3:53 AM 24.1 °F - 21.9 °F 91% 30.43 in 6.0 mi Calm Calm - N/A   Overcast
4:53 AM 25.0 °F 19.3 °F 21.9 °F 88% 30.43 in 8.0 mi West 4.6 mph - N/A   Overcast
5:53 AM 25.0 °F - 19.9 °F 81% 30.43 in 10.0 mi Calm Calm - N/A   Mostly Cloudy
6:53 AM 24.1 °F - 19.9 °F 84% 30.44 in 10.0 mi Calm Calm - N/A   Overcast
7:53 AM 26.1 °F - 21.9 °F 84% 30.45 in 8.0 mi Calm Calm - N/A   Overcast
8:53 AM 26.1 °F 21.9 °F 21.9 °F 84% 30.45 in 9.0 mi SSW 3.5 mph - N/A   Overcast
9:53 AM 28.0 °F - 21.9 °F 78% 30.47 in 10.0 mi Calm Calm - N/A   Overcast
10:53 AM 30.0 °F - 21.0 °F 69% 30.48 in 10.0 mi Calm Calm - N/A   Overcast
11:53 AM 30.9 °F - 21.9 °F 69% 30.46 in 10.0 mi Calm Calm - N/A   Overcast
12:53 PM 32.0 °F - 21.9 °F 66% 30.44 in 10.0 mi Calm Calm - N/A   Scattered Clouds
1:53 PM 32.0 °F - 21.9 °F 66% 30.42 in 10.0 mi Calm Calm - N/A   Overcast
2:53 PM 34.0 °F 29.8 °F 23.0 °F 64% 30.42 in 10.0 mi NNE 4.6 mph - N/A   Mostly Cloudy
3:53 PM 32.0 °F 25.6 °F 24.1 °F 73% 30.41 in 7.0 mi NE 6.9 mph - N/A   Clear
4:53 PM 30.0 °F 25.2 °F 23.0 °F 75% 30.42 in 8.0 mi North 4.6 mph - N/A   Clear
5:53 PM 28.9 °F 22.8 °F 23.0 °F 78% 30.42 in 7.0 mi North 5.8 mph - N/A   Clear
6:53 PM 26.1 °F - 23.0 °F 88% 30.42 in 7.0 mi Calm Calm - N/A   Clear
7:53 PM 27.0 °F 23.0 °F 23.0 °F 85% 30.42 in 7.0 mi North 3.5 mph - N/A   Mostly Cloudy
8:05 PM 26.6 °F - 23.0 °F 86% 30.39 in 7.0 mi Calm Calm - N/A   Scattered Clouds
8:23 PM 26.6 °F - 23.0 °F 86% 30.39 in 6.0 mi Calm Calm - N/A   Mostly Cloudy
8:53 PM 26.1 °F - 23.0 °F 88% 30.42 in 6.0 mi Calm Calm - N/A   Mostly Cloudy
9:19 PM 23.0 °F - 21.2 °F 93% 30.40 in 5.0 mi Calm Calm - N/A   Partly Cloudy
9:53 PM 21.9 °F - 19.9 °F 92% 30.43 in 5.0 mi Calm Calm - N/A   Clear
10:51 PM 23.0 °F - 21.2 °F 93% 30.41 in 5.0 mi Calm Calm - N/A   Mostly Cloudy
10:53 PM 23.0 °F - 21.0 °F 92% 30.44 in 5.0 mi Calm Calm - N/A   Mostly Cloudy
11:53 PM 25.0 °F - 23.0 °F 92% 30.43 in 6.0 mi Calm Calm - N/A   Overcast